User: anonymous   Login
Location: Unspecified
(0.0000°N, 0.0000°E)
Time: 20:15:15
(UTC+00:00)
Language:

STARLINK-4451 - Orbit

View from above orbital plane
View from above orbital plane
View from above satellite
View from above satellite

Ground track
Ground track

The orbit is defined by the following mean orbital elements,

1 53492U          26145.66668980 +.00000000 +00000-0 +44218-2 0 00004
2 53492  97.6010 266.6478 0001285  94.2135 280.6415 15.26440801    04
Epoch (UTC): 25 May 2026 16:00:01
Eccentricity: 0.0001285
inclination: 97.6010°
perigee height: 486 km
apogee height: 487 km
right ascension of ascending node: 266.6478°
argument of perigee: 94.2135°
revolutions per day: 15.26440801
mean anomaly at epoch: 280.6415°

The dashed part of the orbit path shows where the satellite is in the earth's shadow,  

DLR